Time,TemperatureF,DewpointF,PressureIn,WindDirection,WindDirectionDegrees,WindSpeedMPH,WindSpeedGustMPH,Humidity,HourlyPrecipIn,Conditions,Clouds,dailyrainin,SoftwareType,DateUTC
2013-08-20 00:01:00,70.3,60.5,29.94,South,179,4.0,5.0,71,0.00,,SCT055,0.00,VWS V14.01,2013-08-20 04:01:00,
2013-08-20 00:06:00,70.2,60.4,29.94,SW,227,3.0,3.0,71,0.00,,CLR,0.00,VWS V14.01,2013-08-20 04:06:00,
2013-08-20 00:11:00,70.1,60.7,29.94,SSW,198,1.0,2.0,72,0.00,,CLR,0.00,VWS V14.01,2013-08-20 04:11:00,
2013-08-20 00:16:00,70.1,60.7,29.94,South,183,3.0,8.0,72,0.00,,CLR,0.00,VWS V14.01,2013-08-20 04:16:00,
2013-08-20 00:21:00,70.2,60.8,29.94,SSE,163,1.0,4.0,72,0.00,,CLR,0.00,VWS V14.01,2013-08-20 04:21:00,
2013-08-20 00:26:00,70.1,60.7,29.94,SSW,211,4.0,4.0,72,0.00,,CLR,0.00,VWS V14.01,2013-08-20 04:26:00,
2013-08-20 00:31:00,70.0,60.6,29.93,SSW,200,3.0,4.0,72,0.00,,CLR,0.00,VWS V14.01,2013-08-20 04:31:00,
2013-08-20 00:36:00,70.0,61.0,29.93,SSW,204,8.0,9.0,73,0.00,,CLR,0.00,VWS V14.01,2013-08-20 04:36:00,
2013-08-20 00:41:00,70.0,61.0,29.93,South,175,1.0,2.0,73,0.00,,CLR,0.00,VWS V14.01,2013-08-20 04:41:00,
2013-08-20 00:46:00,70.1,61.0,29.93,SSW,206,2.0,4.0,73,0.00,,CLR,0.00,VWS V14.01,2013-08-20 04:46:00,
2013-08-20 00:51:00,70.1,61.0,29.93,SSW,204,2.0,3.0,73,0.00,,CLR,0.00,VWS V14.01,2013-08-20 04:51:00,
2013-08-20 00:56:00,70.0,61.0,29.93,WSW,248,4.0,6.0,73,0.00,,CLR,0.00,VWS V14.01,2013-08-20 04:56:00,
2013-08-20 01:01:00,70.0,61.0,29.94,SW,232,3.0,6.0,73,0.00,,CLR,0.00,VWS V14.01,2013-08-20 05:01:00,
2013-08-20 01:06:00,70.0,61.0,29.94,WSW,247,7.0,8.0,73,0.00,,CLR,0.00,VWS V14.01,2013-08-20 05:06:00,
2013-08-20 01:11:00,69.9,60.9,29.94,SSW,202,2.0,3.0,73,0.00,,CLR,0.00,VWS V14.01,2013-08-20 05:11:00,
2013-08-20 01:16:00,69.9,61.2,29.93,SW,232,4.0,6.0,74,0.00,,CLR,0.00,VWS V14.01,2013-08-20 05:16:00,
2013-08-20 01:22:00,69.9,61.2,29.93,SSW,201,3.0,4.0,74,0.00,,CLR,0.00,VWS V14.01,2013-08-20 05:22:00,
2013-08-20 01:27:00,70.0,61.3,29.93,SSW,211,2.0,4.0,74,0.00,,CLR,0.00,VWS V14.01,2013-08-20 05:27:00,
2013-08-20 01:32:00,69.9,61.2,29.93,SSW,204,2.0,3.0,74,0.00,,CLR,0.00,VWS V14.01,2013-08-20 05:32:00,
2013-08-20 01:37:00,69.9,61.2,29.93,SE,127,2.0,3.0,74,0.00,,CLR,0.00,VWS V14.01,2013-08-20 05:37:00,
2013-08-20 01:42:00,69.9,61.2,29.93,SSW,204,2.0,2.0,74,0.00,,CLR,0.00,VWS V14.01,2013-08-20 05:42:00,
2013-08-20 01:47:00,69.7,61.0,29.94,ESE,119,3.0,3.0,74,0.00,,CLR,0.00,VWS V14.01,2013-08-20 05:47:00,
2013-08-20 01:52:00,69.4,60.8,29.93,ESE,111,3.0,3.0,74,0.00,,CLR,0.00,VWS V14.01,2013-08-20 05:52:00,
2013-08-20 01:57:00,68.7,60.5,29.94,ESE,114,4.0,4.0,75,0.00,,CLR,0.00,VWS V14.01,2013-08-20 05:57:00,
2013-08-20 02:02:00,67.8,60.3,29.94,ESE,121,4.0,4.0,77,0.00,,CLR,0.00,VWS V14.01,2013-08-20 06:02:00,
2013-08-20 02:07:00,67.2,60.5,29.94,ESE,106,1.0,1.0,79,0.00,,CLR,0.00,VWS V14.01,2013-08-20 06:07:00,
2013-08-20 02:12:00,66.6,59.9,29.94,East,87,1.0,1.0,79,0.00,,CLR,0.00,VWS V14.01,2013-08-20 06:12:00,
2013-08-20 02:17:00,66.4,60.4,29.94,ESE,116,3.0,3.0,81,0.00,,CLR,0.00,VWS V14.01,2013-08-20 06:17:00,
2013-08-20 02:22:00,66.1,60.1,29.94,ESE,119,1.0,3.0,81,0.00,,CLR,0.00,VWS V14.01,2013-08-20 06:22:00,
2013-08-20 02:27:00,65.5,59.9,29.94,ESE,110,2.0,3.0,82,0.00,,CLR,0.00,VWS V14.01,2013-08-20 06:27:00,
2013-08-20 02:32:00,65.1,60.2,29.94,ESE,110,2.0,3.0,84,0.00,,CLR,0.00,VWS V14.01,2013-08-20 06:32:00,
2013-08-20 02:37:00,64.8,59.9,29.94,ESE,109,2.0,3.0,84,0.00,,CLR,0.00,VWS V14.01,2013-08-20 06:37:00,
2013-08-20 02:42:00,64.8,60.2,29.94,ESE,115,4.0,4.0,85,0.00,,CLR,0.00,VWS V14.01,2013-08-20 06:42:00,
2013-08-20 02:47:00,64.8,60.2,29.94,ESE,107,0.0,0.0,85,0.00,,CLR,0.00,VWS V14.01,2013-08-20 06:47:00,
2013-08-20 02:52:00,64.8,60.2,29.94,ESE,107,0.0,1.0,85,0.00,,CLR,0.00,VWS V14.01,2013-08-20 06:52:00,
2013-08-20 02:57:00,64.9,60.3,29.94,ESE,107,0.0,0.0,85,0.00,,CLR,0.00,VWS V14.01,2013-08-20 06:57:00,
2013-08-20 03:02:00,65.1,60.8,29.94,ESE,123,2.0,2.0,86,0.00,,CLR,0.00,VWS V14.01,2013-08-20 07:02:00,
2013-08-20 03:07:00,65.3,60.7,29.94,ESE,111,1.0,1.0,85,0.00,,CLR,0.00,VWS V14.01,2013-08-20 07:07:00,
2013-08-20 03:12:00,65.6,61.0,29.94,ESE,111,3.0,3.0,85,0.00,,CLR,0.00,VWS V14.01,2013-08-20 07:12:00,
2013-08-20 03:17:00,66.0,61.0,29.94,SE,137,2.0,2.0,84,0.00,,CLR,0.00,VWS V14.01,2013-08-20 07:17:00,
2013-08-20 03:22:00,66.2,61.2,29.94,SW,222,1.0,1.0,84,0.00,,CLR,0.00,VWS V14.01,2013-08-20 07:22:00,
2013-08-20 03:27:00,66.4,61.1,29.94,East,101,2.0,2.0,83,0.00,,CLR,0.00,VWS V14.01,2013-08-20 07:27:00,
2013-08-20 03:33:00,66.6,61.3,29.94,SE,130,1.0,1.0,83,0.00,,CLR,0.00,VWS V14.01,2013-08-20 07:33:00,
2013-08-20 03:38:00,66.7,61.4,29.94,SE,130,0.0,1.0,83,0.00,,CLR,0.00,VWS V14.01,2013-08-20 07:38:00,
2013-08-20 03:43:00,67.0,61.7,29.94,ESE,105,2.0,2.0,83,0.00,,CLR,0.00,VWS V14.01,2013-08-20 07:43:00,
2013-08-20 03:48:00,67.2,61.9,29.94,ESE,108,0.0,1.0,83,0.00,,CLR,0.00,VWS V14.01,2013-08-20 07:48:00,
2013-08-20 03:53:00,67.3,61.6,29.94,ESE,121,1.0,2.0,82,0.00,,CLR,0.00,VWS V14.01,2013-08-20 07:53:00,
2013-08-20 03:58:00,67.4,62.1,29.94,ESE,121,2.0,2.0,83,0.00,,CLR,0.00,VWS V14.01,2013-08-20 07:58:00,
2013-08-20 04:03:00,67.5,61.8,29.94,ESE,117,0.0,1.0,82,0.00,,CLR,0.00,VWS V14.01,2013-08-20 08:03:00,
2013-08-20 04:08:00,67.6,61.9,29.94,ESE,113,2.0,2.0,82,0.00,,CLR,0.00,VWS V14.01,2013-08-20 08:08:00,
2013-08-20 04:13:00,68.1,62.1,29.94,WSW,247,1.0,1.0,81,0.00,,CLR,0.00,VWS V14.01,2013-08-20 08:13:00,
2013-08-20 04:18:00,68.7,62.3,29.93,NNW,329,0.0,1.0,80,0.00,,CLR,0.00,VWS V14.01,2013-08-20 08:18:00,
2013-08-20 04:23:00,69.4,62.6,29.94,SSW,206,4.0,8.0,79,0.00,,CLR,0.00,VWS V14.01,2013-08-20 08:23:00,
2013-08-20 04:28:00,70.1,62.9,29.94,SW,230,2.0,3.0,78,0.00,,CLR,0.00,VWS V14.01,2013-08-20 08:28:00,
2013-08-20 04:33:00,70.5,63.0,29.94,West,262,3.0,6.0,77,0.00,,CLR,0.00,VWS V14.01,2013-08-20 08:33:00,
2013-08-20 04:38:00,70.8,62.9,29.94,SW,219,2.0,5.0,76,0.00,,CLR,0.00,VWS V14.01,2013-08-20 08:38:00,
2013-08-20 04:43:00,71.0,63.1,29.93,WSW,256,8.0,8.0,76,0.00,,CLR,0.00,VWS V14.01,2013-08-20 08:43:00,
2013-08-20 04:48:00,71.1,63.2,29.93,SSW,193,5.0,5.0,76,0.00,,CLR,0.00,VWS V14.01,2013-08-20 08:48:00,
2013-08-20 04:53:00,71.2,63.3,29.93,WSW,253,10.0,13.0,76,0.00,,CLR,0.00,VWS V14.01,2013-08-20 08:53:00,
2013-08-20 04:58:00,71.2,63.3,29.93,WSW,238,4.0,7.0,76,0.00,,CLR,0.00,VWS V14.01,2013-08-20 08:58:00,
2013-08-20 05:03:00,71.1,63.2,29.93,West,270,4.0,4.0,76,0.00,,CLR,0.00,VWS V14.01,2013-08-20 09:03:00,
2013-08-20 05:08:00,71.1,63.2,29.93,SW,219,5.0,5.0,76,0.00,,CLR,0.00,VWS V14.01,2013-08-20 09:08:00,
2013-08-20 05:13:00,71.1,63.2,29.93,SW,225,7.0,7.0,76,0.00,,CLR,0.00,VWS V14.01,2013-08-20 09:13:00,
2013-08-20 05:18:00,71.0,63.4,29.93,WSW,243,5.0,7.0,77,0.00,,CLR,0.00,VWS V14.01,2013-08-20 09:18:00,
2013-08-20 05:23:00,71.0,63.4,29.93,SSW,209,4.0,5.0,77,0.00,,CLR,0.00,VWS V14.01,2013-08-20 09:23:00,
2013-08-20 05:28:00,71.0,63.4,29.93,West,281,3.0,4.0,77,0.00,,CLR,0.00,VWS V14.01,2013-08-20 09:28:00,
2013-08-20 05:33:00,71.0,63.4,29.93,SW,225,7.0,7.0,77,0.00,,CLR,0.00,VWS V14.01,2013-08-20 09:33:00,
2013-08-20 05:38:00,71.0,63.4,29.94,WSW,251,4.0,10.0,77,0.00,,CLR,0.00,VWS V14.01,2013-08-20 09:38:00,
2013-08-20 05:43:00,71.0,63.8,29.94,SW,221,2.0,2.0,78,0.00,,CLR,0.00,VWS V14.01,2013-08-20 09:43:00,
2013-08-20 05:48:00,70.9,63.7,29.94,South,184,4.0,5.0,78,0.00,,CLR,0.00,VWS V14.01,2013-08-20 09:48:00,
2013-08-20 05:53:00,70.9,63.7,29.94,WNW,290,4.0,10.0,78,0.00,,CLR,0.00,VWS V14.01,2013-08-20 09:53:00,
2013-08-20 05:58:00,70.9,63.7,29.94,SW,232,4.0,8.0,78,0.00,,CLR,0.00,VWS V14.01,2013-08-20 09:58:00,
2013-08-20 06:03:00,70.9,63.7,29.94,SSW,198,3.0,3.0,78,0.00,,CLR,0.00,VWS V14.01,2013-08-20 10:03:00,
2013-08-20 06:08:00,70.8,63.6,29.94,West,272,1.0,2.0,78,0.00,,CLR,0.00,VWS V14.01,2013-08-20 10:08:00,
2013-08-20 06:13:00,70.8,63.6,29.95,West,274,6.0,6.0,78,0.00,,CLR,0.00,VWS V14.01,2013-08-20 10:13:00,
2013-08-20 06:18:00,70.8,64.0,29.95,SW,229,4.0,5.0,79,0.00,,CLR,0.00,VWS V14.01,2013-08-20 10:18:00,
2013-08-20 06:23:00,70.7,63.9,29.95,SW,231,2.0,3.0,79,0.00,,CLR,0.00,VWS V14.01,2013-08-20 10:23:00,
2013-08-20 06:29:00,70.7,63.9,29.95,WSW,244,3.0,4.0,79,0.00,,CLR,0.00,VWS V14.01,2013-08-20 10:29:00,
2013-08-20 06:34:00,70.6,64.1,29.95,WSW,253,4.0,6.0,80,0.00,,CLR,0.00,VWS V14.01,2013-08-20 10:34:00,
2013-08-20 06:39:00,70.6,64.1,29.96,West,275,3.0,4.0,80,0.00,,CLR,0.00,VWS V14.01,2013-08-20 10:39:00,
2013-08-20 06:44:00,70.5,64.0,29.96,SW,234,6.0,8.0,80,0.00,,CLR,0.00,VWS V14.01,2013-08-20 10:44:00,
2013-08-20 06:49:00,70.5,64.0,29.96,WSW,245,4.0,4.0,80,0.00,,CLR,0.00,VWS V14.01,2013-08-20 10:49:00,
2013-08-20 06:54:00,70.5,64.0,29.96,NNW,329,2.0,3.0,80,0.00,,CLR,0.00,VWS V14.01,2013-08-20 10:54:00,
2013-08-20 06:59:00,70.5,64.4,29.96,WNW,287,4.0,4.0,81,0.00,,CLR,0.00,VWS V14.01,2013-08-20 10:59:00,
2013-08-20 07:04:00,70.6,64.5,29.96,SW,219,2.0,2.0,81,0.00,,CLR,0.00,VWS V14.01,2013-08-20 11:04:00,
2013-08-20 07:09:00,70.6,64.5,29.97,SW,234,4.0,4.0,81,0.00,,CLR,0.00,VWS V14.01,2013-08-20 11:09:00,
2013-08-20 07:14:00,70.6,64.5,29.97,NW,305,3.0,3.0,81,0.00,,CLR,0.00,VWS V14.01,2013-08-20 11:14:00,
2013-08-20 07:19:00,70.6,64.5,29.97,WNW,295,2.0,3.0,81,0.00,,CLR,0.00,VWS V14.01,2013-08-20 11:19:00,
2013-08-20 07:24:00,70.6,64.5,29.97,SW,221,0.0,0.0,81,0.00,,CLR,0.00,VWS V14.01,2013-08-20 11:24:00,
2013-08-20 07:29:00,70.6,64.5,29.97,SW,233,3.0,4.0,81,0.00,,CLR,0.00,VWS V14.01,2013-08-20 11:29:00,
2013-08-20 07:34:00,70.6,64.5,29.97,NNW,348,2.0,3.0,81,0.00,,CLR,0.00,VWS V14.01,2013-08-20 11:34:00,
2013-08-20 07:39:00,70.6,64.5,29.97,WSW,238,3.0,3.0,81,0.00,,CLR,0.00,VWS V14.01,2013-08-20 11:39:00,
2013-08-20 07:44:00,70.6,64.8,29.97,SSW,211,1.0,2.0,82,0.00,,CLR,0.00,VWS V14.01,2013-08-20 11:44:00,
2013-08-20 07:49:00,70.6,64.5,29.97,SW,215,0.0,1.0,81,0.00,,CLR,0.00,VWS V14.01,2013-08-20 11:49:00,
2013-08-20 07:54:00,70.7,64.9,29.97,SW,217,2.0,3.0,82,0.00,,CLR,0.00,VWS V14.01,2013-08-20 11:54:00,
2013-08-20 07:59:00,70.7,64.9,29.97,WNW,294,4.0,4.0,82,0.00,,CLR,0.00,VWS V14.01,2013-08-20 11:59:00,
2013-08-20 08:04:00,70.8,64.7,29.98,WSW,252,2.0,2.0,81,0.00,,CLR,0.00,VWS V14.01,2013-08-20 12:04:00,
2013-08-20 08:09:00,70.9,65.1,29.98,SW,231,0.0,2.0,82,0.00,,CLR,0.00,VWS V14.01,2013-08-20 12:09:00,
2013-08-20 08:14:00,71.0,65.2,29.98,WSW,246,3.0,4.0,82,0.00,,CLR,0.00,VWS V14.01,2013-08-20 12:14:00,
2013-08-20 08:19:00,71.1,65.3,29.98,SW,215,3.0,3.0,82,0.00,,CLR,0.00,VWS V14.01,2013-08-20 12:19:00,
2013-08-20 08:24:00,71.2,65.1,29.98,WNW,298,2.0,3.0,81,0.00,,CLR,0.00,VWS V14.01,2013-08-20 12:24:00,
2013-08-20 08:29:00,71.2,65.1,29.98,SW,235,3.0,3.0,81,0.00,,CLR,0.00,VWS V14.01,2013-08-20 12:29:00,
2013-08-20 08:34:00,71.1,65.0,29.98,WNW,299,4.0,4.0,81,0.00,,CLR,0.00,VWS V14.01,2013-08-20 12:34:00,
2013-08-20 08:39:00,71.2,65.1,29.98,SW,215,2.0,5.0,81,0.00,,CLR,0.00,VWS V14.01,2013-08-20 12:39:00,
2013-08-20 08:44:00,71.3,65.2,29.99,WSW,240,2.0,3.0,81,0.00,,CLR,0.00,VWS V14.01,2013-08-20 12:44:00,
2013-08-20 08:50:00,71.6,65.5,29.98,WSW,240,5.0,7.0,81,0.00,,CLR,0.00,VWS V14.01,2013-08-20 12:50:00,
2013-08-20 08:55:00,71.9,65.4,29.98,SW,233,5.0,6.0,80,0.00,,CLR,0.00,VWS V14.01,2013-08-20 12:55:00,
2013-08-20 09:00:00,72.2,65.7,29.99,WSW,248,5.0,8.0,80,0.00,,CLR,0.00,VWS V14.01,2013-08-20 13:00:00,
2013-08-20 09:05:00,72.5,65.6,29.99,SW,225,5.0,5.0,79,0.00,,SCT041,0.00,VWS V14.01,2013-08-20 13:05:00,
2013-08-20 09:10:00,72.8,65.9,29.99,SW,216,2.0,2.0,79,0.00,,SCT041,0.00,VWS V14.01,2013-08-20 13:10:00,
2013-08-20 09:15:00,73.1,65.8,29.98,SW,218,1.0,2.0,78,0.00,,SCT041,0.00,VWS V14.01,2013-08-20 13:15:00,
2013-08-20 09:20:00,73.5,66.2,29.99,WSW,248,10.0,10.0,78,0.00,,SCT041,0.00,VWS V14.01,2013-08-20 13:20:00,
2013-08-20 09:25:00,73.7,66.1,29.99,SW,221,4.0,4.0,77,0.00,,SCT041,0.00,VWS V14.01,2013-08-20 13:25:00,
2013-08-20 09:30:00,73.9,65.9,29.99,SW,227,5.0,5.0,76,0.00,,SCT041,0.00,VWS V14.01,2013-08-20 13:30:00,
2013-08-20 09:35:00,74.1,66.1,29.99,West,269,4.0,9.0,76,0.00,,SCT041,0.00,VWS V14.01,2013-08-20 13:35:00,
2013-08-20 09:40:00,74.2,66.2,29.99,WSW,254,4.0,7.0,76,0.00,,SCT041,0.00,VWS V14.01,2013-08-20 13:40:00,
2013-08-20 09:45:00,74.5,66.4,29.99,SW,235,4.0,4.0,76,0.00,,SCT041,0.00,VWS V14.01,2013-08-20 13:45:00,
2013-08-20 09:50:00,74.7,66.3,29.99,WSW,256,5.0,5.0,75,0.00,,SCT041,0.00,VWS V14.01,2013-08-20 13:50:00,
2013-08-20 09:55:00,74.9,66.8,29.99,SW,221,4.0,5.0,76,0.00,,SCT041,0.00,VWS V14.01,2013-08-20 13:55:00,
2013-08-20 10:00:00,75.0,66.2,29.99,SSW,206,6.0,6.0,74,0.00,,SCT041,0.00,VWS V14.01,2013-08-20 14:00:00,
2013-08-20 10:05:00,75.2,66.3,29.99,SSW,199,6.0,9.0,74,0.00,,,0.00,VWS V14.01,2013-08-20 14:05:00,
2013-08-20 10:10:00,75.2,66.7,29.99,SSW,193,4.0,5.0,75,0.00,,,0.00,VWS V14.01,2013-08-20 14:10:00,
2013-08-20 10:15:00,75.6,66.7,29.99,SSW,210,3.0,5.0,74,0.00,,,0.00,VWS V14.01,2013-08-20 14:15:00,
2013-08-20 10:20:00,75.8,66.5,29.99,SW,231,4.0,5.0,73,0.00,,,0.00,VWS V14.01,2013-08-20 14:20:00,
2013-08-20 10:25:00,75.8,66.1,29.99,West,267,6.0,7.0,72,0.00,,,0.00,VWS V14.01,2013-08-20 14:25:00,
2013-08-20 10:30:00,75.7,66.0,30.00,WSW,256,11.0,11.0,72,0.00,,,0.00,VWS V14.01,2013-08-20 14:30:00,
2013-08-20 10:35:00,75.7,66.4,29.99,SW,234,10.0,16.0,73,0.00,,,0.00,VWS V14.01,2013-08-20 14:35:00,
2013-08-20 10:40:00,75.7,66.0,29.99,WSW,240,6.0,7.0,72,0.00,,,0.00,VWS V14.01,2013-08-20 14:40:00,
2013-08-20 10:45:00,75.7,66.4,29.99,WSW,245,15.0,15.0,73,0.00,,,0.00,VWS V14.01,2013-08-20 14:45:00,
2013-08-20 10:50:00,75.8,66.1,29.99,SW,229,4.0,6.0,72,0.00,,,0.00,VWS V14.01,2013-08-20 14:50:00,
2013-08-20 10:55:00,76.0,66.3,29.99,West,272,9.0,9.0,72,0.00,,,0.00,VWS V14.01,2013-08-20 14:55:00,
2013-08-20 11:00:00,76.2,66.1,29.99,WNW,287,7.0,7.0,71,0.00,,,0.00,VWS V14.01,2013-08-20 15:00:00,
2013-08-20 11:06:00,76.4,66.7,29.99,WNW,288,6.0,10.0,72,0.00,,CLR,0.00,VWS V14.01,2013-08-20 15:06:00,
2013-08-20 11:11:00,76.7,66.2,29.99,SSW,213,10.0,11.0,70,0.00,,CLR,0.00,VWS V14.01,2013-08-20 15:11:00,
2013-08-20 11:16:00,76.7,66.6,29.99,West,260,11.0,11.0,71,0.00,,CLR,0.00,VWS V14.01,2013-08-20 15:16:00,
2013-08-20 11:21:00,76.9,66.4,30.00,West,259,5.0,11.0,70,0.00,,CLR,0.00,VWS V14.01,2013-08-20 15:21:00,
2013-08-20 11:26:00,76.8,65.9,30.00,NW,314,6.0,12.0,69,0.00,,CLR,0.00,VWS V14.01,2013-08-20 15:26:00,
2013-08-20 11:31:00,76.9,66.0,29.99,SW,218,12.0,12.0,69,0.00,,CLR,0.00,VWS V14.01,2013-08-20 15:31:00,
2013-08-20 11:36:00,77.1,66.2,30.00,SW,231,6.0,8.0,69,0.00,,CLR,0.00,VWS V14.01,2013-08-20 15:36:00,
2013-08-20 11:41:00,77.2,66.2,30.00,SW,232,4.0,7.0,69,0.00,,CLR,0.00,VWS V14.01,2013-08-20 15:41:00,
2013-08-20 11:46:00,77.3,65.9,30.00,West,269,8.0,10.0,68,0.00,,CLR,0.00,VWS V14.01,2013-08-20 15:46:00,
2013-08-20 11:51:00,77.7,66.3,30.00,SW,236,6.0,10.0,68,0.00,,CLR,0.00,VWS V14.01,2013-08-20 15:51:00,
2013-08-20 11:56:00,78.0,66.2,30.00,SW,228,13.0,15.0,67,0.00,,CLR,0.00,VWS V14.01,2013-08-20 15:56:00,
2013-08-20 12:01:00,77.9,66.1,30.00,WSW,254,8.0,8.0,67,0.00,,CLR,0.00,VWS V14.01,2013-08-20 16:01:00,
2013-08-20 12:06:00,78.0,66.6,30.00,West,273,7.0,7.0,68,0.00,,CLR,0.00,VWS V14.01,2013-08-20 16:06:00,
2013-08-20 12:11:00,78.2,65.9,30.00,WSW,252,7.0,9.0,66,0.00,,CLR,0.00,VWS V14.01,2013-08-20 16:11:00,
2013-08-20 12:16:00,78.4,66.1,30.00,WSW,248,7.0,8.0,66,0.00,,CLR,0.00,VWS V14.01,2013-08-20 16:16:00,
2013-08-20 12:21:00,78.5,66.2,30.00,SW,236,6.0,8.0,66,0.00,,CLR,0.00,VWS V14.01,2013-08-20 16:21:00,
2013-08-20 12:26:00,78.7,66.0,30.00,SW,228,3.0,9.0,65,0.00,,CLR,0.00,VWS V14.01,2013-08-20 16:26:00,
2013-08-20 12:31:00,79.0,66.2,30.00,West,269,11.0,11.0,65,0.00,,CLR,0.00,VWS V14.01,2013-08-20 16:31:00,
2013-08-20 12:36:00,79.2,66.4,29.99,SW,214,5.0,8.0,65,0.00,,CLR,0.00,VWS V14.01,2013-08-20 16:36:00,
2013-08-20 12:41:00,79.4,65.7,30.00,SSW,197,8.0,11.0,63,0.00,,CLR,0.00,VWS V14.01,2013-08-20 16:41:00,
2013-08-20 12:46:00,79.4,65.7,29.99,SSW,209,9.0,13.0,63,0.00,,CLR,0.00,VWS V14.01,2013-08-20 16:46:00,
2013-08-20 12:51:00,79.2,65.5,29.99,West,273,9.0,11.0,63,0.00,,CLR,0.00,VWS V14.01,2013-08-20 16:51:00,
2013-08-20 12:56:00,79.5,66.3,29.99,WNW,296,12.0,13.0,64,0.00,,CLR,0.00,VWS V14.01,2013-08-20 16:56:00,
2013-08-20 13:01:00,80.0,66.7,29.99,SW,215,2.0,2.0,64,0.00,,CLR,0.00,VWS V14.01,2013-08-20 17:01:00,
2013-08-20 13:06:00,80.4,65.7,29.99,SW,221,17.0,17.0,61,0.00,,BKN044,0.00,VWS V14.01,2013-08-20 17:06:00,
2013-08-20 13:11:00,80.3,66.1,29.99,West,262,2.0,3.0,62,0.00,,BKN044,0.00,VWS V14.01,2013-08-20 17:11:00,
2013-08-20 13:16:00,80.7,65.5,29.99,WSW,246,11.0,11.0,60,0.00,,BKN044,0.00,VWS V14.01,2013-08-20 17:16:00,
2013-08-20 13:21:00,80.7,65.5,29.99,WSW,250,11.0,11.0,60,0.00,,BKN044,0.00,VWS V14.01,2013-08-20 17:21:00,
2013-08-20 13:26:00,80.7,65.5,29.99,SW,215,8.0,12.0,60,0.00,,BKN044,0.00,VWS V14.01,2013-08-20 17:26:00,
2013-08-20 13:31:00,80.7,65.5,29.99,WNW,300,4.0,14.0,60,0.00,,BKN044,0.00,VWS V14.01,2013-08-20 17:31:00,
2013-08-20 13:36:00,80.7,65.5,29.99,WSW,244,9.0,14.0,60,0.00,,BKN044,0.00,VWS V14.01,2013-08-20 17:36:00,
2013-08-20 13:41:00,80.7,65.5,29.99,WNW,300,13.0,13.0,60,0.00,,BKN044,0.00,VWS V14.01,2013-08-20 17:41:00,
2013-08-20 13:46:00,80.7,65.1,29.98,WSW,250,9.0,13.0,59,0.00,,BKN044,0.00,VWS V14.01,2013-08-20 17:46:00,
2013-08-20 13:51:00,80.7,64.6,29.98,WNW,283,3.0,9.0,58,0.00,,BKN044,0.00,VWS V14.01,2013-08-20 17:51:00,
2013-08-20 13:56:00,80.7,64.1,29.98,SW,234,6.0,11.0,57,0.00,,BKN044,0.00,VWS V14.01,2013-08-20 17:56:00,
2013-08-20 14:01:00,80.5,63.9,29.98,WSW,237,6.0,8.0,57,0.00,,BKN044,0.00,VWS V14.01,2013-08-20 18:01:00,
2013-08-20 14:06:00,81.0,64.3,29.98,WSW,253,7.0,13.0,57,0.00,,SCT050,0.00,VWS V14.01,2013-08-20 18:06:00,
2013-08-20 14:11:00,81.3,64.1,29.98,West,279,2.0,4.0,56,0.00,,SCT050,0.00,VWS V14.01,2013-08-20 18:11:00,
2013-08-20 14:16:00,81.6,63.4,29.98,SSW,212,6.0,9.0,54,0.00,,SCT050,0.00,VWS V14.01,2013-08-20 18:16:00,
2013-08-20 14:21:00,81.7,63.5,29.98,West,273,11.0,18.0,54,0.00,,SCT050,0.00,VWS V14.01,2013-08-20 18:21:00,
2013-08-20 14:26:00,81.7,63.5,29.98,WSW,253,12.0,16.0,54,0.00,,SCT050,0.00,VWS V14.01,2013-08-20 18:26:00,
2013-08-20 14:31:00,81.4,63.2,29.98,SW,217,10.0,12.0,54,0.00,,SCT050,0.00,VWS V14.01,2013-08-20 18:31:00,
2013-08-20 14:36:00,81.5,63.8,29.98,West,274,8.0,8.0,55,0.00,,SCT050,0.00,VWS V14.01,2013-08-20 18:36:00,
2013-08-20 14:41:00,81.7,63.5,29.98,WSW,241,10.0,15.0,54,0.00,,SCT050,0.00,VWS V14.01,2013-08-20 18:41:00,
2013-08-20 14:46:00,82.0,64.3,29.98,WSW,240,13.0,14.0,55,0.00,,SCT050,0.00,VWS V14.01,2013-08-20 18:46:00,
2013-08-20 14:51:00,82.0,63.7,29.98,WNW,293,7.0,9.0,54,0.00,,SCT050,0.00,VWS V14.01,2013-08-20 18:51:00,
2013-08-20 14:56:00,81.9,63.6,29.98,West,278,6.0,10.0,54,0.00,,SCT050,0.00,VWS V14.01,2013-08-20 18:56:00,
2013-08-20 15:01:00,82.1,63.8,29.98,NW,304,2.0,5.0,54,0.00,,FEW043,0.00,VWS V14.01,2013-08-20 19:01:00,
2013-08-20 15:06:00,82.2,64.4,29.98,SW,225,8.0,8.0,55,0.00,,FEW043,0.00,VWS V14.01,2013-08-20 19:06:00,
2013-08-20 15:11:00,82.5,64.7,29.98,SW,217,8.0,10.0,55,0.00,,FEW043,0.00,VWS V14.01,2013-08-20 19:11:00,
2013-08-20 15:16:00,82.9,64.6,29.97,West,259,10.0,10.0,54,0.00,,FEW043,0.00,VWS V14.01,2013-08-20 19:16:00,
2013-08-20 15:21:00,83.0,64.7,29.97,WSW,254,3.0,6.0,54,0.00,,FEW043,0.00,VWS V14.01,2013-08-20 19:21:00,
2013-08-20 15:26:00,82.9,64.6,29.98,West,259,7.0,8.0,54,0.00,,FEW043,0.00,VWS V14.01,2013-08-20 19:26:00,
2013-08-20 15:31:00,82.7,64.4,29.97,SSW,212,8.0,8.0,54,0.00,,FEW043,0.00,VWS V14.01,2013-08-20 19:31:00,
2013-08-20 15:36:00,82.9,65.6,29.97,South,190,3.0,3.0,56,0.00,,FEW043,0.00,VWS V14.01,2013-08-20 19:36:00,
2013-08-20 15:41:00,83.3,64.9,29.97,SW,215,2.0,3.0,54,0.00,,FEW043,0.00,VWS V14.01,2013-08-20 19:41:00,
2013-08-20 15:46:00,83.5,64.0,29.97,West,279,3.0,4.0,52,0.00,,FEW043,0.00,VWS V14.01,2013-08-20 19:46:00,
2013-08-20 15:51:00,83.6,64.7,29.97,West,277,3.0,4.0,53,0.00,,FEW043,0.00,VWS V14.01,2013-08-20 19:51:00,
2013-08-20 15:56:00,83.4,63.4,29.96,SW,227,7.0,10.0,51,0.00,,FEW043,0.00,VWS V14.01,2013-08-20 19:56:00,
2013-08-20 16:01:00,83.4,64.0,29.96,West,270,9.0,11.0,52,0.00,,OVC060,0.00,VWS V14.01,2013-08-20 20:01:00,
2013-08-20 16:06:00,83.2,63.8,29.97,WSW,242,5.0,8.0,52,0.00,,OVC060,0.00,VWS V14.01,2013-08-20 20:06:00,
2013-08-20 16:11:00,83.3,64.4,29.96,SW,227,6.0,9.0,53,0.00,,OVC060,0.00,VWS V14.01,2013-08-20 20:11:00,
2013-08-20 16:16:00,83.4,64.5,29.97,WSW,248,12.0,13.0,53,0.00,,OVC060,0.00,VWS V14.01,2013-08-20 20:16:00,
2013-08-20 16:22:00,83.3,63.9,29.96,WSW,251,12.0,14.0,52,0.00,,OVC060,0.00,VWS V14.01,2013-08-20 20:22:00,
2013-08-20 16:27:00,83.0,62.5,29.96,SW,218,5.0,8.0,50,0.00,,OVC060,0.00,VWS V14.01,2013-08-20 20:27:00,
2013-08-20 16:32:00,83.0,62.5,29.96,SW,219,12.0,13.0,50,0.00,,OVC060,0.00,VWS V14.01,2013-08-20 20:32:00,
2013-08-20 16:37:00,82.9,62.9,29.97,WSW,246,13.0,18.0,51,0.00,,OVC060,0.00,VWS V14.01,2013-08-20 20:37:00,
2013-08-20 16:42:00,82.9,63.5,29.96,WSW,256,15.0,15.0,52,0.00,,OVC060,0.00,VWS V14.01,2013-08-20 20:42:00,
2013-08-20 16:47:00,83.1,64.2,29.96,WSW,242,12.0,13.0,53,0.00,,OVC060,0.00,VWS V14.01,2013-08-20 20:47:00,
2013-08-20 16:52:00,82.9,64.6,29.96,SW,222,7.0,7.0,54,0.00,,OVC060,0.00,VWS V14.01,2013-08-20 20:52:00,
2013-08-20 16:57:00,82.8,63.9,29.96,SSW,192,11.0,17.0,53,0.00,,OVC060,0.00,VWS V14.01,2013-08-20 20:57:00,
2013-08-20 17:02:00,82.6,64.8,29.96,SW,223,14.0,15.0,55,0.00,,BKN055,0.00,VWS V14.01,2013-08-20 21:02:00,
2013-08-20 17:07:00,82.6,64.8,29.96,SW,231,9.0,11.0,55,0.00,,BKN055,0.00,VWS V14.01,2013-08-20 21:07:00,
2013-08-20 17:12:00,82.7,64.4,29.96,West,269,9.0,14.0,54,0.00,,BKN055,0.00,VWS V14.01,2013-08-20 21:12:00,
2013-08-20 17:17:00,82.5,64.2,29.96,WSW,241,4.0,5.0,54,0.00,,BKN055,0.00,VWS V14.01,2013-08-20 21:17:00,
2013-08-20 17:22:00,82.3,64.5,29.96,West,269,4.0,11.0,55,0.00,,BKN055,0.00,VWS V14.01,2013-08-20 21:22:00,
2013-08-20 17:27:00,82.2,64.4,29.95,SW,214,14.0,16.0,55,0.00,,BKN055,0.00,VWS V14.01,2013-08-20 21:27:00,
2013-08-20 17:32:00,82.0,64.8,29.95,West,277,4.0,11.0,56,0.00,,BKN055,0.00,VWS V14.01,2013-08-20 21:32:00,
2013-08-20 17:37:00,81.9,64.7,29.95,WNW,287,11.0,11.0,56,0.00,,BKN055,0.00,VWS V14.01,2013-08-20 21:37:00,
2013-08-20 17:42:00,81.9,64.2,29.95,West,265,4.0,9.0,55,0.00,,BKN055,0.00,VWS V14.01,2013-08-20 21:42:00,
2013-08-20 17:47:00,82.0,64.8,29.95,SW,224,3.0,4.0,56,0.00,,BKN055,0.00,VWS V14.01,2013-08-20 21:47:00,
2013-08-20 17:52:00,82.0,64.3,29.95,SW,229,6.0,11.0,55,0.00,,BKN055,0.00,VWS V14.01,2013-08-20 21:52:00,
2013-08-20 17:57:00,81.7,64.5,29.96,SW,225,14.0,14.0,56,0.00,,BKN055,0.00,VWS V14.01,2013-08-20 21:57:00,
2013-08-20 18:02:00,81.3,64.1,29.95,SW,234,6.0,11.0,56,0.00,,BKN055,0.00,VWS V14.01,2013-08-20 22:02:00,
2013-08-20 18:07:00,81.1,64.9,29.95,West,271,7.0,11.0,58,0.00,,BKN055,0.00,VWS V14.01,2013-08-20 22:07:00,
2013-08-20 18:12:00,81.2,65.0,29.95,SSW,197,6.0,8.0,58,0.00,,BKN055,0.00,VWS V14.01,2013-08-20 22:12:00,
2013-08-20 18:17:00,81.0,64.8,29.95,SSW,204,11.0,11.0,58,0.00,,BKN055,0.00,VWS V14.01,2013-08-20 22:17:00,
2013-08-20 18:22:00,80.8,65.2,29.95,NW,319,2.0,3.0,59,0.00,,BKN055,0.00,VWS V14.01,2013-08-20 22:22:00,
2013-08-20 18:27:00,80.7,65.5,29.95,WNW,299,3.0,3.0,60,0.00,,BKN055,0.00,VWS V14.01,2013-08-20 22:27:00,
2013-08-20 18:32:00,80.4,65.7,29.95,SW,225,6.0,10.0,61,0.00,,BKN055,0.00,VWS V14.01,2013-08-20 22:32:00,
2013-08-20 18:37:00,80.1,65.0,29.95,West,269,3.0,6.0,60,0.00,,BKN055,0.00,VWS V14.01,2013-08-20 22:37:00,
2013-08-20 18:42:00,79.8,65.2,29.95,WSW,253,2.0,6.0,61,0.00,,BKN055,0.00,VWS V14.01,2013-08-20 22:42:00,
2013-08-20 18:47:00,79.7,65.5,29.95,SW,234,5.0,5.0,62,0.00,,BKN055,0.00,VWS V14.01,2013-08-20 22:47:00,
2013-08-20 18:52:00,79.5,65.3,29.94,WSW,237,4.0,6.0,62,0.00,,BKN055,0.00,VWS V14.01,2013-08-20 22:52:00,
2013-08-20 18:57:00,79.4,65.3,29.95,WSW,242,9.0,12.0,62,0.00,,BKN055,0.00,VWS V14.01,2013-08-20 22:57:00,
2013-08-20 19:02:00,79.3,65.2,29.95,SW,234,3.0,3.0,62,0.00,,CLR,0.00,VWS V14.01,2013-08-20 23:02:00,
2013-08-20 19:07:00,79.3,65.2,29.94,WSW,254,5.0,5.0,62,0.00,,CLR,0.00,VWS V14.01,2013-08-20 23:07:00,
2013-08-20 19:12:00,79.2,65.1,29.94,West,261,4.0,4.0,62,0.00,,CLR,0.00,VWS V14.01,2013-08-20 23:12:00,
2013-08-20 19:17:00,79.2,65.1,29.94,West,276,2.0,3.0,62,0.00,,CLR,0.00,VWS V14.01,2013-08-20 23:17:00,
2013-08-20 19:22:00,79.1,65.0,29.94,West,264,4.0,5.0,62,0.00,,CLR,0.00,VWS V14.01,2013-08-20 23:22:00,
2013-08-20 19:27:00,78.9,64.8,29.94,SW,227,4.0,4.0,62,0.00,,CLR,0.00,VWS V14.01,2013-08-20 23:27:00,
2013-08-20 19:32:00,78.7,65.1,29.94,WSW,251,4.0,4.0,63,0.00,,CLR,0.00,VWS V14.01,2013-08-20 23:32:00,
2013-08-20 19:37:00,78.5,64.9,29.94,WSW,240,5.0,9.0,63,0.00,,CLR,0.00,VWS V14.01,2013-08-20 23:37:00,
2013-08-20 19:42:00,78.2,65.0,29.94,WSW,243,3.0,3.0,64,0.00,,CLR,0.00,VWS V14.01,2013-08-20 23:42:00,
2013-08-20 19:47:00,77.9,64.8,29.94,WSW,247,4.0,7.0,64,0.00,,CLR,0.00,VWS V14.01,2013-08-20 23:47:00,
2013-08-20 19:53:00,77.7,65.0,29.94,WSW,256,4.0,4.0,65,0.00,,CLR,0.00,VWS V14.01,2013-08-20 23:53:00,
2013-08-20 19:58:00,77.5,64.8,29.94,WSW,252,7.0,7.0,65,0.00,,CLR,0.00,VWS V14.01,2013-08-20 23:58:00,
2013-08-20 20:03:00,77.2,65.0,29.94,WSW,252,4.0,4.0,66,0.00,,BKN049,0.00,VWS V14.01,2013-08-21 00:03:00,
2013-08-20 20:08:00,76.9,64.7,29.94,SW,234,1.0,4.0,66,0.00,,BKN049,0.00,VWS V14.01,2013-08-21 00:08:00,
2013-08-20 20:13:00,76.6,64.8,29.94,SW,231,2.0,2.0,67,0.00,,BKN049,0.00,VWS V14.01,2013-08-21 00:13:00,
2013-08-20 20:18:00,76.2,64.4,29.94,West,263,4.0,6.0,67,0.00,,BKN049,0.00,VWS V14.01,2013-08-21 00:18:00,
2013-08-20 20:23:00,75.9,64.6,29.94,WSW,238,6.0,6.0,68,0.00,,BKN049,0.00,VWS V14.01,2013-08-21 00:23:00,
2013-08-20 20:28:00,75.7,64.4,29.94,WSW,240,3.0,3.0,68,0.00,,BKN049,0.00,VWS V14.01,2013-08-21 00:28:00,
2013-08-20 20:33:00,75.5,64.2,29.94,SW,226,3.0,4.0,68,0.00,,BKN049,0.00,VWS V14.01,2013-08-21 00:33:00,
2013-08-20 20:38:00,75.3,64.4,29.94,SW,217,4.0,5.0,69,0.00,,BKN049,0.00,VWS V14.01,2013-08-21 00:38:00,
2013-08-20 20:43:00,75.1,64.2,29.94,SW,219,2.0,3.0,69,0.00,,BKN049,0.00,VWS V14.01,2013-08-21 00:43:00,
2013-08-20 20:48:00,74.9,64.1,29.95,SW,232,5.0,5.0,69,0.00,,BKN049,0.00,VWS V14.01,2013-08-21 00:48:00,
2013-08-20 20:53:00,74.7,63.9,29.95,SW,236,6.0,6.0,69,0.00,,BKN049,0.00,VWS V14.01,2013-08-21 00:53:00,
2013-08-20 20:58:00,74.5,64.1,29.95,SSW,202,4.0,4.0,70,0.00,,BKN049,0.00,VWS V14.01,2013-08-21 00:58:00,
2013-08-20 21:03:00,74.4,64.0,29.95,West,259,1.0,2.0,70,0.00,,FEW060,0.00,VWS V14.01,2013-08-21 01:03:00,
2013-08-20 21:08:00,74.2,63.8,29.95,SW,234,3.0,5.0,70,0.00,,FEW060,0.00,VWS V14.01,2013-08-21 01:08:00,
2013-08-20 21:13:00,74.0,63.6,29.95,SW,216,0.0,1.0,70,0.00,,FEW060,0.00,VWS V14.01,2013-08-21 01:13:00,
2013-08-20 21:18:00,73.9,63.9,29.95,SW,231,2.0,2.0,71,0.00,,FEW060,0.00,VWS V14.01,2013-08-21 01:18:00,
2013-08-20 21:19:00,73.9,63.9,29.95,SW,219,1.0,2.0,71,0.00,,FEW060,0.00,VWS V14.01,2013-08-21 01:19:00,
2013-08-20 21:24:00,73.7,63.7,29.95,SW,220,1.0,1.0,71,0.00,,FEW060,0.00,VWS V14.01,2013-08-21 01:24:00,
2013-08-20 21:29:00,73.6,63.6,29.95,SSW,207,2.0,3.0,71,0.00,,FEW060,0.00,VWS V14.01,2013-08-21 01:29:00,
2013-08-20 21:34:00,73.5,63.5,29.95,SSW,213,2.0,2.0,71,0.00,,FEW060,0.00,VWS V14.01,2013-08-21 01:34:00,
2013-08-20 21:39:00,73.3,63.7,29.95,SSW,207,1.0,1.0,72,0.00,,FEW060,0.00,VWS V14.01,2013-08-21 01:39:00,
2013-08-20 21:44:00,73.1,63.5,29.95,SSW,202,3.0,3.0,72,0.00,,FEW060,0.00,VWS V14.01,2013-08-21 01:44:00,
2013-08-20 21:49:00,73.0,63.5,29.95,SSW,196,1.0,3.0,72,0.00,,FEW060,0.00,VWS V14.01,2013-08-21 01:49:00,
2013-08-20 21:54:00,72.9,63.3,29.95,SW,229,1.0,2.0,72,0.00,,FEW060,0.00,VWS V14.01,2013-08-21 01:54:00,
2013-08-20 21:59:00,72.8,63.3,29.95,SW,225,2.0,3.0,72,0.00,,FEW060,0.00,VWS V14.01,2013-08-21 01:59:00,
2013-08-20 22:04:00,72.6,63.5,29.95,SSE,159,1.0,2.0,73,0.00,,CLR,0.00,VWS V14.01,2013-08-21 02:04:00,
2013-08-20 22:09:00,72.6,63.5,29.95,SW,225,1.0,1.0,73,0.00,,CLR,0.00,VWS V14.01,2013-08-21 02:09:00,
2013-08-20 22:14:00,72.4,63.7,29.96,SSW,198,0.0,1.0,74,0.00,,CLR,0.00,VWS V14.01,2013-08-21 02:14:00,
2013-08-20 22:19:00,72.1,63.4,29.96,South,173,1.0,1.0,74,0.00,,CLR,0.00,VWS V14.01,2013-08-21 02:19:00,
2013-08-20 22:24:00,71.6,63.6,29.96,South,173,1.0,2.0,76,0.00,,CLR,0.00,VWS V14.01,2013-08-21 02:24:00,
2013-08-20 22:29:00,71.1,63.5,29.96,South,169,1.0,1.0,77,0.00,,CLR,0.00,VWS V14.01,2013-08-21 02:29:00,
2013-08-20 22:34:00,70.6,63.4,29.95,ESE,111,1.0,2.0,78,0.00,,CLR,0.00,VWS V14.01,2013-08-21 02:34:00,
2013-08-20 22:39:00,70.3,63.5,29.95,ESE,111,1.0,1.0,79,0.00,,CLR,0.00,VWS V14.01,2013-08-21 02:39:00,
2013-08-20 22:44:00,70.1,63.3,29.95,ESE,118,1.0,1.0,79,0.00,,CLR,0.00,VWS V14.01,2013-08-21 02:44:00,
2013-08-20 22:49:00,69.8,63.4,29.95,SSW,194,0.0,1.0,80,0.00,,CLR,0.00,VWS V14.01,2013-08-21 02:49:00,
2013-08-20 22:54:00,69.6,63.5,29.96,SSW,204,1.0,1.0,81,0.00,,CLR,0.00,VWS V14.01,2013-08-21 02:54:00,
2013-08-20 22:59:00,69.4,63.3,29.95,SSW,193,0.0,1.0,81,0.00,,CLR,0.00,VWS V14.01,2013-08-21 02:59:00,
2013-08-20 23:04:00,69.2,63.5,29.96,SSW,195,1.0,1.0,82,0.00,,CLR,0.00,VWS V14.01,2013-08-21 03:04:00,
2013-08-20 23:10:00,69.0,63.3,29.95,SSW,203,1.0,1.0,82,0.00,,CLR,0.00,VWS V14.01,2013-08-21 03:10:00,
2013-08-20 23:15:00,69.0,63.3,29.95,SSW,207,3.0,3.0,82,0.00,,CLR,0.00,VWS V14.01,2013-08-21 03:15:00,
2013-08-20 23:20:00,69.4,63.0,29.95,SSW,198,3.0,4.0,80,0.00,,CLR,0.00,VWS V14.01,2013-08-21 03:20:00,
2013-08-20 23:25:00,70.0,62.8,29.95,South,169,5.0,6.0,78,0.00,,CLR,0.00,VWS V14.01,2013-08-21 03:25:00,
2013-08-20 23:30:00,70.8,62.9,29.95,SSW,203,4.0,5.0,76,0.00,,CLR,0.00,VWS V14.01,2013-08-21 03:30:00,
2013-08-20 23:35:00,71.4,62.7,29.96,SSW,212,5.0,6.0,74,0.00,,CLR,0.00,VWS V14.01,2013-08-21 03:35:00,
2013-08-20 23:40:00,72.0,62.9,29.95,SW,221,6.0,6.0,73,0.00,,CLR,0.00,VWS V14.01,2013-08-21 03:40:00,
2013-08-20 23:45:00,72.4,62.9,29.95,SSW,207,5.0,7.0,72,0.00,,CLR,0.00,VWS V14.01,2013-08-21 03:45:00,
2013-08-20 23:50:00,72.6,62.7,29.95,SSW,212,3.0,4.0,71,0.00,,CLR,0.00,VWS V14.01,2013-08-21 03:50:00,
2013-08-20 23:55:00,72.8,62.9,29.95,WSW,237,5.0,9.0,71,0.00,,CLR,0.00,VWS V14.01,2013-08-21 03:55:00,